[[{"header":{"parameterUnit":"m.s-1","parameterCategory":1,"la1":30.2991,"la2":30.254,"lo1":-89.0895,"lo2":-89.0444,"dy":0.0017,"dx":0.0017,"nx":28,"ny":28,"refTime":"2024-07-03T21:00:00:Z","depth":0,"parameterNumber":2,"parameterNumberName":"U-component_of_WINDS"},"data":[0,0,0,0,0,0,0,0,0,0,0,0,0,0,0,0,0,0,0,0,0,0,0,0,0,0,0,0,0,0,0,0,0,0,0,0,0,0,0,0,0,0,0,0,0,0,0,0,0,0,0,0,0,0,0,0,0,0,2.4132,2.4133,0,2.4199,2.4199,2.42,2.4181,2.418,2.4179,2.4178,2.4242,2.4245,2.4248,0,0,0,0,0,0,0,0,0,0,0,0,0,2.3983,2.3986,2.4132,2.4133,2.4134,2.4199,2.4199,2.42,2.4182,2.418,2.4178,2.4177,2.4241,2.4244,2.4248,0,0,0,0,0,0,0,0,0,0,0,0,0,2.4048,2.3987,2.4132,2.4132,2.4133,2.4198,2.4199,2.4201,2.4182,2.418,2.4178,2.4176,2.424,2.4244,2.4248,2.4316,0,0,2.4262,2.4264,0,0,0,0,0,0,0,0,2.4045,2.4054,2.4131,2.4132,2.4133,2.418,2.4171,2.4239,2.4183,2.4163,2.4177,2.4175,2.4223,2.4228,2.4245,2.4319,2.4322,2.4262,2.4265,2.4267,2.4268,0,0,0,0,0,0,0,2.404,2.4051,2.4158,2.4132,2.4134,2.4127,2.4134,2.4183,2.4203,2.4165,2.4164,2.4172,2.4223,2.4241,2.4246,2.4323,2.4262,2.4266,2.4269,2.4271,2.4453,2.4455,0,0,0,0,0,0,2.4036,2.4047,2.4156,2.416,2.4083,2.4132,2.414,2.4167,2.4203,2.4206,2.4174,2.4171,2.4234,2.4241,2.4249,2.4328,2.4267,2.4271,2.4274,2.445,2.4453,2.4455,0,0,0,0,0,0,2.4033,2.4046,2.4153,2.4103,2.4117,2.4136,2.4167,2.4169,2.4187,2.4209,2.4212,2.4189,2.4233,2.4242,2.4299,2.433,2.4273,2.4277,2.4448,2.4451,2.4454,2.4488,0,0,0,0,0,0,2.4028,2.4045,2.4072,2.4104,2.4119,2.4204,2.4169,2.4172,2.4196,2.4193,2.4225,2.4228,2.4232,2.4293,2.4303,2.4335,2.4281,2.4445,2.4449,2.4453,2.4484,2.4492,2.4499,0,0,0,0,0,2.4023,2.4079,2.4073,2.4087,2.4154,2.4206,2.4215,2.422,2.4198,2.4224,2.4238,2.4227,2.4325,2.4299,2.4311,2.4344,2.4443,2.4448,2.4453,2.4481,2.4491,2.4499,0,0,0,0,0,0,2.4048,2.4083,2.4077,2.4145,2.4173,2.4203,2.4236,2.423,2.4263,2.4259,2.4262,2.427,2.4327,2.4342,2.4311,2.441,2.4381,2.4388,2.4398,2.4407,2.4414,2.4408,2.4284,0,0,0,0,0,2.4062,2.4103,2.413,2.4187,2.4202,2.4217,2.424,2.4241,2.4269,2.428,2.4299,2.4325,2.4362,2.4386,2.4421,2.4487,2.4492,2.4516,2.4523,2.4529,2.4534,2.4567,2.4577,2.4471,2.4471,2.4471,0,0,2.409,2.4114,2.4139,2.4193,2.4215,2.4254,2.4227,2.4271,2.43,2.4287,2.4341,2.4355,2.4385,2.4446,2.4474,2.4459,2.4565,2.4535,2.4539,2.4542,2.4573,2.4583,2.4592,2.4475,2.4474,2.4473,0,0,2.4161,2.4185,2.4234,2.4256,2.4289,2.4299,2.431,2.4341,2.435,2.4405,2.4395,2.4429,2.4493,2.4514,2.4533,2.461,2.46,2.4622,2.4659,2.4691,2.4699,2.4706,2.4731,2.474,2.4628,2.4628,2.4628,0,2.4191,2.4253,2.4259,2.4304,2.4326,2.4317,2.4365,2.4386,2.4429,2.4443,2.4428,2.4506,2.4526,2.459,2.4609,2.4626,2.4637,2.4617,2.4698,2.4705,2.4712,2.4735,2.4745,2.463,2.463,2.463,2.4629,0,2.4287,2.4329,2.4365,2.4406,2.4433,2.4479,2.449,2.4517,2.4516,2.4526,2.458,2.4604,2.4642,2.4658,2.4657,2.4721,2.4711,2.4697,2.4667,2.4724,2.4746,2.4755,2.4633,2.4633,2.4632,2.4631,0,0,2.4374,2.4419,2.4431,2.4449,2.4485,2.4517,2.4562,2.46,2.4621,2.4651,2.4686,2.474,2.4726,2.4748,2.4749,2.4778,2.4834,2.4759,2.476,2.477,2.4902,2.4911,2.4922,2.4828,2.483,2.4832,2.4899,0,2.4446,2.4526,2.4532,2.4603,2.4641,2.4633,2.4671,2.4696,2.4707,2.4739,2.4751,2.4787,2.4768,2.4781,2.4809,2.4821,2.486,2.4817,2.4858,2.486,2.4849,2.4934,2.4943,2.5006,2.4908,2.4909,2.491,0,2.4541,2.4573,2.4648,2.4676,2.4692,2.4727,2.4761,2.4793,2.482,2.4826,2.485,2.4847,2.489,2.4861,2.4919,2.489,2.4907,2.4916,2.4918,2.492,2.4887,2.4935,2.5026,2.5034,2.4925,2.4923,2.4922,0,2.4593,2.4656,2.4708,2.4724,2.4759,2.4783,2.4799,2.4824,2.4846,2.4876,2.489,2.4924,2.4942,2.4968,2.4974,2.4953,2.5031,2.5003,2.5035,2.5034,2.5049,2.5048,2.5142,2.5066,2.5065,2.5065,2.5065,0,2.4671,2.4716,2.4732,2.4764,2.4813,2.482,2.4868,2.4882,2.4904,2.4937,2.4932,2.4963,2.497,2.5001,2.5006,2.5051,2.5061,2.5064,2.5064,2.5063,2.5062,2.5073,2.5067,2.5068,2.5067,2.5067,2.5066,0,2.4737,2.475,2.4806,2.4834,2.4843,2.4878,2.4901,2.493,2.4941,2.4982,2.4992,2.5008,2.5044,2.5053,2.5096,2.5099,2.5152,2.515,2.5143,2.5142,2.5172,2.5168,2.5274,2.5287,2.5205,2.5206,2.5206,0,2.4785,2.4819,2.4852,2.4874,2.489,2.4926,2.4948,2.4956,2.4979,2.5011,2.5036,2.5072,2.5101,2.5159,2.5173,2.5206,2.5202,2.5237,2.5207,2.5203,2.5199,2.5196,2.5198,2.5242,2.5242,2.5243,2.5244,0,2.4866,2.4871,2.4904,2.4939,2.4966,2.4994,2.502,2.5038,2.5048,2.5074,2.5112,2.5134,2.5178,2.5213,2.5245,2.5259,2.5252,2.5254,2.5262,2.5259,2.5253,2.5254,2.5156,2.525,2.525,2.5249,2.5249,2.5249,2.4923,2.4952,2.4979,2.5015,2.5036,2.506,2.5089,2.5103,2.5134,2.5171,2.5173,2.5213,2.5237,2.528,2.5296,2.5326,2.5315,2.5328,2.5331,2.5333,2.5335,2.5251,2.5333,2.5332,2.5332,2.5332,2.5332,0,2.5001,2.5018,2.5052,2.5089,2.5117,2.511,2.5138,2.5161,2.5197,2.5221,2.525,2.5291,2.5325,2.5341,2.5374,2.5394,2.5392,2.5402,2.5399,2.5402,2.5344,2.5332,2.5404,2.5404,2.5404,2.5404,2.5404,2.5404,2.5045,2.5094,2.5101,2.5159,2.5175,2.5215,2.5231,2.5253,2.5271,2.5318,2.5347,2.5358,2.5378,2.5412,2.5441,2.5445,2.5456,2.5467,2.5469,2.5414,2.5407,2.54,2.5388,2.547,2.5471,2.5525,2.5525,2.5526]},{"header":{"parameterUnit":"m.s-1","parameterCategory":1,"la1":30.2991,"la2":30.254,"lo1":-89.0895,"lo2":-89.0444,"dy":0.0017,"dx":0.0017,"nx":28,"ny":28,"refTime":"2024-07-03T21:00:00:Z","depth":0,"parameterNumber":3,"parameterNumberName":"V-component_of_WINDS"},"data":[0,0,0,0,0,0,0,0,0,0,0,0,0,0,0,0,0,0,0,0,0,0,0,0,0,0,0,0,0,0,0,0,0,0,0,0,0,0,0,0,0,0,0,0,0,0,0,0,0,0,0,0,0,0,0,0,0,0,3.5022,3.5022,0,3.5097,3.5098,3.5099,3.5052,3.505,3.5048,3.5046,3.5121,3.5125,3.5129,0,0,0,0,0,0,0,0,0,0,0,0,0,3.4832,3.4836,3.5021,3.5022,3.5023,3.5097,3.5098,3.5099,3.5053,3.505,3.5047,3.5045,3.5119,3.5124,3.5129,0,0,0,0,0,0,0,0,0,0,0,0,0,3.4912,3.4837,3.5021,3.5009,3.5009,3.5097,3.5098,3.51,3.5053,3.505,3.5046,3.5043,3.5118,3.5124,3.513,3.5233,0,0,3.5148,3.5151,0,0,0,0,0,0,0,0,3.4907,3.4919,3.501,3.501,3.501,3.5062,3.5059,3.5144,3.5054,3.5036,3.5046,3.5042,3.5104,3.5111,3.5132,3.5237,3.524,3.5149,3.5152,3.5155,3.5157,0,0,0,0,0,0,0,3.4902,3.4915,3.5051,3.5011,3.5011,3.4998,3.5006,3.5075,3.5087,3.5037,3.5034,3.5044,3.5103,3.5126,3.5133,3.5241,3.5149,3.5154,3.5158,3.516,3.5432,3.5436,0,0,0,0,0,0,3.4898,3.4911,3.5049,3.5054,3.4949,3.5004,3.5013,3.5049,3.5087,3.5089,3.5047,3.5042,3.5118,3.5126,3.5136,3.5258,3.5155,3.5161,3.5164,3.5429,3.5433,3.5437,0,0,0,0,0,0,3.4894,3.491,3.5046,3.4981,3.4998,3.5011,3.5052,3.5052,3.5075,3.5094,3.5095,3.5069,3.5115,3.5127,3.5209,3.526,3.5163,3.5169,3.5425,3.543,3.5435,3.5505,0,0,0,0,0,0,3.4889,3.4909,3.495,3.4983,3.5001,3.5119,3.5055,3.5056,3.5086,3.508,3.5115,3.5117,3.5114,3.52,3.5215,3.5267,3.5174,3.542,3.5427,3.5433,3.5498,3.5512,3.5524,0,0,0,0,0,3.4882,3.4967,3.4952,3.4969,3.5053,3.5123,3.5133,3.5128,3.5091,3.5131,3.5142,3.5116,3.5252,3.5209,3.5225,3.528,3.5417,3.5425,3.5433,3.5492,3.5509,3.5524,0,0,0,0,0,0,3.4939,3.4971,3.4955,3.5053,3.5086,3.5115,3.5165,3.5147,3.519,3.5182,3.5173,3.5181,3.5266,3.5281,3.5232,3.5381,3.5328,3.534,3.5368,3.5384,3.5397,3.5391,3.5179,0,0,0,0,0,3.4963,3.5019,3.5043,3.5127,3.5144,3.5152,3.5182,3.5175,3.5208,3.5221,3.5239,3.5271,3.532,3.5353,3.54,3.55,3.5506,3.5545,3.5558,3.5569,3.5579,3.5631,3.5648,3.5464,3.5463,3.5463,0,0,3.5014,3.5038,3.5073,3.5139,3.5163,3.5219,3.5164,3.5226,3.5266,3.523,3.5308,3.5322,3.5357,3.5448,3.5489,3.5463,3.5631,3.5579,3.5587,3.5592,3.5641,3.5658,3.5674,3.5469,3.5468,3.5467,0,0,3.5133,3.5158,3.523,3.5255,3.5293,3.5297,3.5314,3.5346,3.5354,3.5432,3.5406,3.5453,3.554,3.5565,3.5589,3.5717,3.5694,3.5732,3.58,3.585,3.5865,3.5877,3.5921,3.5937,3.5742,3.5742,3.5743,0,3.5191,3.5275,3.5269,3.5333,3.5361,3.5332,3.5403,3.5428,3.5478,3.5498,3.5469,3.5575,3.5597,3.5692,3.5723,3.5744,3.5762,3.5728,3.5863,3.5876,3.5888,3.5929,3.5946,3.5747,3.5746,3.5746,3.5745,0,3.5343,3.5401,3.5455,3.5505,3.5539,3.5607,3.5609,3.5645,3.5635,3.5642,3.5721,3.5745,3.5796,3.5818,3.5809,3.5912,3.5894,3.5865,3.5811,3.591,3.5949,3.5965,3.5753,3.5751,3.575,3.5749,0,0,3.5501,3.5546,3.5566,3.5587,3.5625,3.567,3.5735,3.5785,3.5815,3.585,3.5903,3.5976,3.5948,3.5976,3.5969,3.6014,3.6111,3.5978,3.5978,3.6,3.6223,3.6245,3.6263,3.6096,3.6099,3.6101,3.622,0,3.5622,3.5737,3.5732,3.5839,3.5891,3.5863,3.5919,3.5948,3.5956,3.6001,3.6009,3.6061,3.6021,3.6037,3.608,3.609,3.6155,3.6081,3.6143,3.6146,3.6135,3.6284,3.6307,3.6418,3.6235,3.6238,3.624,0,3.5779,3.582,3.5932,3.596,3.5982,3.6033,3.6077,3.6121,3.6152,3.6155,3.6185,3.617,3.6234,3.618,3.6267,3.6216,3.6241,3.625,3.6254,3.6259,3.6198,3.6292,3.6454,3.647,3.6264,3.6262,3.626,0,3.5881,3.5964,3.6041,3.6061,3.6097,3.6133,3.6149,3.6177,3.6207,3.6245,3.6264,3.6309,3.6334,3.6368,3.6365,3.6326,3.6453,3.6399,3.6455,3.6455,3.6482,3.648,3.6649,3.6501,3.65,3.65,3.65,0,3.6016,3.6085,3.6088,3.6135,3.6211,3.6204,3.6279,3.6291,3.6316,3.6364,3.6342,3.6387,3.6381,3.6426,3.6424,3.6495,3.6507,3.6509,3.6508,3.6511,3.651,3.6526,3.6518,3.6504,3.6503,3.6503,3.6502,0,3.6143,3.6148,3.623,3.6257,3.6265,3.632,3.6342,3.6386,3.6392,3.6452,3.6466,3.6475,3.6526,3.6527,3.6586,3.6585,3.6671,3.6661,3.6661,3.6658,3.6714,3.6708,3.6898,3.6922,3.6759,3.6761,3.6762,0,3.6229,3.6281,3.6314,3.6345,3.6363,3.6414,3.6443,3.6438,3.647,3.6509,3.6547,3.6597,3.6636,3.672,3.673,3.6775,3.6765,3.6829,3.6772,3.6772,3.6764,3.6761,3.6765,3.6839,3.6841,3.6843,3.6844,0,3.6379,3.6378,3.6423,3.6469,3.6505,3.654,3.6573,3.6599,3.6597,3.6634,3.6686,3.6717,3.6777,3.6825,3.6868,3.6883,3.6863,3.6862,3.6877,3.688,3.6877,3.6878,3.669,3.6857,3.6856,3.6855,3.6854,3.6854,3.6487,3.6531,3.6561,3.6611,3.6635,3.6665,3.6707,3.6718,3.6762,3.6811,3.6805,3.6863,3.6891,3.6946,3.6965,3.7009,3.6987,3.7009,3.7015,3.702,3.7025,3.6871,3.7017,3.7017,3.7016,3.7016,3.7016,0,3.6635,3.6652,3.6698,3.6744,3.6783,3.6761,3.6796,3.6829,3.6881,3.6909,3.6948,3.7007,3.7054,3.7068,3.7113,3.7146,3.7137,3.7157,3.7154,3.7158,3.7043,3.7025,3.7163,3.7163,3.7163,3.7163,3.7163,3.7163,3.6716,3.679,3.6792,3.6877,3.6893,3.6951,3.6972,3.6999,3.7021,3.7089,3.7128,3.7137,3.7159,3.7205,3.7246,3.7249,3.7265,3.7289,3.7288,3.7181,3.7166,3.7152,3.7135,3.7293,3.7294,3.7398,3.7399,3.74]}]]